FW4629 Weather Reports


time (UTC)temp
C
wind
direction
speed
KPH
gust
KPH
rain 1hr
cm
rain 24hr
cm
rain mn
cm
humidity
%
barometer
mb
20260505124813 19 360 6.4 22.5 0.00 0.00 0.00 42 1012.1
20260505124535 18 168 6.4 22.5 0.00 0.00 0.00 42 1011.8
20260505124317 19 360 6.4 22.5 0.00 0.00 0.00 42 1012.1
20260505123828 18 108 6.4 19.3 0.00 0.00 0.00 43 1012.0
20260505123311 18 127 6.4 19.3 0.00 0.00 0.00 44 1012.0
20260505123107 18 117 6.4 19.3 0.00 0.00 0.00 44 1011.6
20260505122814 18 360 8.0 19.3 0.00 0.00 0.00 44 1012.0
20260505122318 18 123 4.8 17.7 0.00 0.00 0.00 45 1012.0
20260505121828 17 233 4.8 17.7 0.00 0.00 0.00 46 1012.1
20260505121603 17 254 6.4 20.9 0.00 0.00 0.00 46 1011.7
20260505121309 17 172 8.0 20.9 0.00 0.00 0.00 46 1011.9
20260505120813 17 360 9.7 24.1 0.00 0.00 0.00 46 1011.9
20260505120323 17 360 16.1 24.1 0.00 0.00 0.00 46 1011.7
20260505120100 17 232 12.9 20.9 0.00 0.00 0.00 46 1011.5
20260505115826 17 223 9.7 19.3 0.00 0.00 0.00 46 1011.7
20260505115328 17 360 4.8 24.1 0.00 0.00 0.00 47 1011.7
20260505114813 17 234 8.0 24.1 0.00 0.00 0.00 47 1011.8
20260505114510 16 360 12.9 20.9 0.00 0.00 0.00 47 1011.5
20260505114322 17 163 8.0 20.9 0.00 0.00 0.00 48 1011.8
20260505113827 17 360 4.8 20.9 0.00 0.00 0.00 48 1011.7
20260505113339 16 360 8.0 20.9 0.00 0.00 0.00 48 1011.7
20260505113005 16 121 4.8 19.3 0.00 0.00 0.00 49 1011.3
20260505112822 16 360 8.0 19.3 0.00 0.00 0.00 49 1011.7
20260505112326 16 360 4.8 14.5 0.00 0.00 0.00 49 1011.7
20260505111809 16 302 4.8 17.7 0.00 0.00 0.00 49 1011.6
20260505111507 16 229 3.2 17.7 0.00 0.00 0.00 50 1011.3
20260505111319 16 224 8.0 17.7 0.00 0.00 0.00 50 1011.5
20260505110824 16 360 4.8 16.1 0.00 0.00 0.00 50 1011.4
20260505110313 16 154 4.8 16.1 0.00 0.00 0.00 51 1011.4
20260505101823 15 360 3.2 11.3 0.00 0.00 0.00 54 1011.2
20260505101553 14 360 3.2 11.3 0.00 0.00 0.00 54 1010.9
20260505101324 15 246 4.8 11.3 0.00 0.00 0.00 54 1011.2
20260505100812 15 360 4.8 11.3 0.00 0.00 0.00 54 1011.2
20260505100323 15 263 6.4 11.3 0.00 0.00 0.00 54 1011.1
20260505100056 14 223 4.8 11.3 0.00 0.00 0.00 54 1010.9
20260505095828 15 245 4.8 9.7 0.00 0.00 0.00 54 1011.2
20260505095339 15 257 4.8 12.9 0.00 0.00 0.00 54 1011.1
20260505094819 15 277 4.8 12.9 0.00 0.00 0.00 54 1011.1
20260505094547 15 274 3.2 12.9 0.00 0.00 0.00 54 1010.8
20260505094322 15 360 8.0 12.9 0.00 0.00 0.00 54 1011.0
20260505093832 15 263 6.4 12.9 0.00 0.00 0.00 54 1011.1
20260505093317 15 249 6.4 16.1 0.00 0.00 0.00 54 1011.0
20260505093059 15 275 4.8 16.1 0.00 0.00 0.00 54 1010.7
20260505092821 15 360 4.8 16.1 0.00 0.00 0.00 54 1011.0
20260505092352 15 252 4.8 11.3 0.00 0.00 0.00 54 1010.8
20260505091816 15 234 4.8 11.3 0.00 0.00 0.00 53 1010.9
20260505091553 15 360 1.6 11.3 0.00 0.00 0.00 53 1010.7
20260505091319 15 255 4.8 11.3 0.00 0.00 0.00 53 1010.9
20260505090830 15 258 4.8 19.3 0.00 0.00 0.00 53 1010.9
20260505090314 15 238 8.0 19.3 0.00 0.00 0.00 53 1010.9
20260505090044 15 360 4.8 12.9 0.00 0.00 0.00 53 1010.7
20260505085820 15 265 4.8 14.5 0.00 0.00 0.00 53 1010.8
20260505085331 15 360 6.4 14.5 0.00 0.00 0.00 53 1011.0
20260505084813 15 360 4.8 12.9 0.00 0.00 0.00 53 1010.8
20260505084531 15 254 4.8 11.3 0.00 0.00 0.00 53 1010.6
20260505084343 15 257 4.8 14.5 0.00 0.00 0.00 53 1010.9
20260505083826 15 217 6.4 14.5 0.00 0.00 0.00 53 1011.0
20260505083337 15 241 4.8 11.3 0.00 0.00 0.00 53 1011.0
20260505083118 15 360 4.8 8.0 0.00 0.00 0.00 53 1010.7
20260505082818 15 360 3.2 9.7 0.00 0.00 0.00 53 1010.9
20260505082323 15 360 3.2 11.3 0.00 0.00 0.00 53 1010.9
20260505081834 15 248 6.4 11.3 0.00 0.00 0.00 53 1011.0
20260505081504 15 235 4.8 11.3 0.00 0.00 0.00 53 1010.8
20260505081337 15 242 4.8 9.7 0.00 0.00 0.00 53 1011.0
20260505080827 15 360 4.8 9.7 0.00 0.00 0.00 53 1011.1
20260505080312 15 360 3.2 11.3 0.00 0.00 0.00 53 1011.1
20260505080100 15 360 3.2 11.3 0.00 0.00 0.00 53 1010.9
20260505075817 15 360 4.8 9.7 0.00 0.00 0.00 53 1010.9
20260505075320 15 252 4.8 12.9 0.00 0.00 0.00 53 1010.8
20260505074831 15 360 4.8 12.9 0.00 0.00 0.00 53 1010.8
20260505074511 15 360 4.8 11.3 0.00 0.00 0.00 53 1010.6
20260505074314 15 273 4.8 11.3 0.00 0.00 0.00 52 1010.8
20260505073819 15 360 4.8 11.3 0.00 0.00 0.00 52 1010.8
20260505073351 15 238 3.2 11.3 0.00 0.00 0.00 52 1010.8
20260505073006 15 234 4.8 11.3 0.00 0.00 0.00 52 1010.7
20260505072814 15 237 4.8 11.3 0.00 0.00 0.00 52 1010.8
20260505072318 15 360 3.2 16.1 0.00 0.00 0.00 51 1010.8
20260505071823 15 360 6.4 16.1 0.00 0.00 0.00 51 1011.0
20260505071509 15 240 3.2 12.9 0.00 0.00 0.00 51 1010.7
20260505071313 15 360 4.8 12.9 0.00 0.00 0.00 51 1010.9
20260505070839 15 360 4.8 9.7 0.00 0.00 0.00 51 1011.1
20260505070328 15 360 3.2 11.3 0.00 0.00 0.00 51 1010.9
20260505070005 15 360 3.2 9.7 0.00 0.00 0.00 51 1010.7
20260505065832 15 360 3.2 8.0 0.00 0.00 0.00 51 1010.9
20260505065315 15 360 3.2 8.0 0.00 0.00 0.00 51 1010.9
20260505064825 15 279 3.2 8.0 0.00 0.00 0.00 51 1011.0
20260505064603 15 279 1.6 8.0 0.00 0.00 0.00 50 1010.8
20260505064328 15 360 1.6 8.0 0.00 0.00 0.00 50 1011.0
20260505063813 15 266 3.2 11.3 0.00 0.00 0.00 51 1011.0
20260505063324 15 246 4.8 9.7 0.00 0.00 0.00 50 1011.0
20260505063011 15 263 3.2 8.0 0.00 0.00 0.00 50 1010.7
20260505062830 15 360 3.2 9.7 0.00 0.00 0.00 50 1010.8
20260505062340 15 360 3.2 8.0 0.00 0.00 0.00 50 1011.0
20260505061823 15 360 3.2 6.4 0.00 0.00 0.00 50 1011.0
20260505061545 15 360 1.6 6.4 0.00 0.00 0.00 49 1010.8
20260505061333 15 360 3.2 6.4 0.00 0.00 0.00 49 1011.1
20260505060818 15 360 3.2 6.4 0.00 0.00 0.00 49 1011.1
20260505060322 15 360 1.6 6.4 0.00 0.00 0.00 48 1011.0
20260505060049 15 360 0.0 6.4 0.00 0.00 0.00 48 1010.8
20260505055852 15 360 1.6 6.4 0.00 0.00 0.00 48 1011.0
20260505055337 15 360 3.2 4.8 0.00 0.00 0.00 48 1011.1
20260505054819 15 360 1.6 4.8 0.00 0.00 0.00 47 1011.0
20260505054524 15 253 1.6 4.8 0.00 0.00 0.00 47 1010.9
20260505054329 15 360 1.6 4.8 0.00 0.00 0.00 47 1011.0
20260505053811 15 252 1.6 4.8 0.00 0.00 0.00 47 1011.1
20260505053314 15 251 0.0 6.4 0.00 0.00 0.00 46 1011.1
20260505053032 15 360 0.0 6.4 0.00 0.00 0.00 46 1011.0
20260505052819 15 360 1.6 6.4 0.00 0.00 0.00 46 1011.0
20260505052330 16 244 3.2 6.4 0.00 0.00 0.00 46 1011.0
20260505051815 16 247 3.2 8.0 0.00 0.00 0.00 46 1011.0
20260505051548 15 360 3.2 12.9 0.00 0.00 0.00 45 1010.8
20260505051320 16 239 4.8 12.9 0.00 0.00 0.00 45 1011.0
20260505050830 16 246 6.4 12.9 0.00 0.00 0.00 45 1011.1
20260505050314 16 250 4.8 11.3 0.00 0.00 0.00 44 1011.1
20260505041616 16 237 6.4 12.9 0.00 0.00 0.00 41 1010.7
20260505041313 16 237 4.8 11.3 0.00 0.00 0.00 41 1010.8
20260505040816 16 215 4.8 14.5 0.00 0.00 0.00 40 1010.7
20260505040327 16 213 6.4 14.5 0.00 0.00 0.00 40 1010.7
20260505040011 16 360 6.4 14.5 0.00 0.00 0.00 40 1010.5
20260505035833 16 236 6.4 14.5 0.00 0.00 0.00 39 1010.7
20260505035343 17 219 6.4 11.3 0.00 0.00 0.00 39 1010.7
20260505034827 17 240 6.4 12.9 0.00 0.00 0.00 38 1010.7
20260505034545 16 239 1.6 12.9 0.00 0.00 0.00 38 1010.5
20260505034310 17 230 6.4 12.9 0.00 0.00 0.00 38 1010.7
20260505033841 17 240 3.2 16.1 0.00 0.00 0.00 37 1010.7
20260505033322 17 207 6.4 14.5 0.00 0.00 0.00 37 1010.8
20260505033036 16 205 6.4 12.9 0.00 0.00 0.00 37 1010.7
20260505032832 17 207 3.2 9.7 0.00 0.00 0.00 37 1011.0
20260505032317 17 360 8.0 14.5 0.00 0.00 0.00 36 1011.0
20260505031822 17 360 6.4 14.5 0.00 0.00 0.00 36 1011.0
20260505031555 17 198 4.8 12.9 0.00 0.00 0.00 35 1010.8
20260505031325 17 360 6.4 9.7 0.00 0.00 0.00 35 1011.0
20260505030810 17 211 6.4 9.7 0.00 0.00 0.00 35 1010.9
20260505030321 17 217 4.8 14.5 0.00 0.00 0.00 35 1011.0
20260505030052 17 217 3.2 14.5 0.00 0.00 0.00 35 1010.9
20260505025825 17 207 8.0 14.5 0.00 0.00 0.00 34 1010.9
20260505025337 17 360 4.8 9.7 0.00 0.00 0.00 34 1010.8
20260505024841 17 217 3.2 16.1 0.00 0.00 0.00 34 1011.0
20260505024539 17 217 8.0 16.1 0.00 0.00 0.00 33 1010.6
20260505024330 17 207 8.0 16.1 0.00 0.00 0.00 33 1010.7
20260505023815 17 360 8.0 16.1 0.00 0.00 0.00 33 1010.8
20260505023319 17 360 4.8 14.5 0.00 0.00 0.00 33 1010.9
20260505023046 17 360 6.4 14.5 0.00 0.00 0.00 33 1010.7
20260505022824 18 226 4.8 11.3 0.00 0.00 0.00 32 1011.0
20260505022334 18 228 6.4 11.3 0.00 0.00 0.00 32 1011.0
20260505021817 18 217 4.8 12.9 0.00 0.00 0.00 32 1011.0
20260505021555 17 213 3.2 12.9 0.00 0.00 0.00 32 1010.9
20260505021320 18 231 6.4 12.9 0.00 0.00 0.00 32 1011.1
20260505020831 18 231 4.8 12.9 0.00 0.00 0.00 32 1011.0
20260505020315 18 360 4.8 12.9 0.00 0.00 0.00 32 1011.0
20260505020055 18 360 4.8 14.5 0.00 0.00 0.00 32 1010.9
20260505015818 18 262 6.4 14.5 0.00 0.00 0.00 32 1011.0
20260505015323 18 223 4.8 12.9 0.00 0.00 0.00 32 1011.0
20260505014834 18 231 6.4 12.9 0.00 0.00 0.00 32 1011.0
20260505014509 18 220 4.8 9.7 0.00 0.00 0.00 32 1010.8
20260505014319 18 227 3.2 14.5 0.00 0.00 0.00 31 1010.9
20260505013824 18 219 3.2 14.5 0.00 0.00 0.00 31 1010.9
20260505013309 18 267 4.8 9.7 0.00 0.00 0.00 31 1010.9
20260505013029 18 360 3.2 11.3 0.00 0.00 0.00 31 1010.8
20260505012840 18 255 4.8 11.3 0.00 0.00 0.00 31 1010.8
20260505012324 18 238 6.4 11.3 0.00 0.00 0.00 30 1010.8
20260505011809 18 246 4.8 14.5 0.00 0.00 0.00 30 1010.8
20260505011511 18 252 6.4 14.5 0.00 0.00 0.00 30 1010.8
20260505011320 18 219 6.4 12.9 0.00 0.00 0.00 30 1010.8
20260505010825 18 228 6.4 14.5 0.00 0.00 0.00 30 1010.8
20260505010310 19 360 6.4 14.5 0.00 0.00 0.00 30 1010.7
20260505010025 18 207 6.4 14.5 0.00 0.00 0.00 30 1010.6
20260505005814 19 225 4.8 11.3 0.00 0.00 0.00 30 1010.7
20260505004809 19 231 6.4 12.9 0.00 0.00 0.00 29 1010.5
20260505004540 19 258 3.2 9.7 0.00 0.00 0.00 29 1010.4
20260505004312 19 360 3.2 6.4 0.00 0.00 0.00 29 1010.5
20260505003823 19 360 3.2 9.7 0.00 0.00 0.00 29 1010.4
20260505003328 20 360 3.2 9.7 0.00 0.00 0.00 28 1010.2
20260505003056 19 269 4.8 9.7 0.00 0.00 0.00 28 1010.3
20260505002810 20 360 3.2 9.7 0.00 0.00 0.00 28 1010.3
20260505002341 20 263 3.2 11.3 0.00 0.00 0.00 28 1010.3
20260505001846 20 360 4.8 11.3 0.00 0.00 0.00 28 1010.2
20260505001517 20 254 3.2 8.0 0.00 0.00 0.00 27 1010.1
20260505001315 20 255 3.2 8.0 0.00 0.00 0.00 27 1010.2
20260505000820 20 360 3.2 9.7 0.00 0.00 0.00 27 1010.3
20260505000323 20 243 4.8 12.9 0.00 0.00 0.00 27 1010.2
20260505000034 20 233 3.2 12.9 0.00 0.00 0.00 26 1010.1
20260504235831 20 234 6.4 12.9 0.00 0.00 0.00 26 1010.2
20260504235316 20 360 4.8 16.1 0.00 0.00 0.00 26 1010.2
20260504234841 21 229 8.0 16.1 0.00 0.00 0.00 26 1010.2
20260504234522 20 218 6.4 16.1 0.00 0.00 0.00 26 1010.0
20260504234331 21 229 6.4 16.1 0.00 0.00 0.00 26 1010.3
20260504233816 21 248 9.7 16.1 0.00 0.00 0.00 25 1010.2
20260504233322 21 257 6.4 16.1 0.00 0.00 0.00 25 1010.2
20260504233037 21 360 8.0 16.1 0.00 0.00 0.00 25 1010.0
20260504232809 21 236 4.8 16.1 0.00 0.00 0.00 25 1010.1
20260504232320 21 252 6.4 16.1 0.00 0.00 0.00 25 1010.2
20260504231824 21 360 6.4 20.9 0.00 0.00 0.00 24 1010.1
20260504231600 21 360 6.4 20.9 0.00 0.00 0.00 24 1010.1
20260504231327 21 232 11.3 20.9 0.00 0.00 0.00 24 1010.1
20260504230839 21 221 11.3 20.9 0.00 0.00 0.00 24 1010.1
20260504230338 21 263 4.8 16.1 0.00 0.00 0.00 24 1010.1
20260504230016 21 198 6.4 16.1 0.00 0.00 0.00 24 1010.1
20260504225810 22 240 6.4 16.1 0.00 0.00 0.00 24 1010.1
20260504225331 21 360 4.8 27.4 0.00 0.00 0.00 23 1010.2
20260504224821 22 360 9.7 27.4 0.00 0.00 0.00 23 1010.1
20260504224506 21 360 6.4 17.7 0.00 0.00 0.00 23 1010.1
20260504224309 22 5 9.7 17.7 0.00 0.00 0.00 23 1010.1
20260504223814 22 360 6.4 20.9 0.00 0.00 0.00 23 1010.2
20260504223318 22 360 8.0 25.7 0.00 0.00 0.00 23 1010.2
20260504223020 21 227 6.4 25.7 0.00 0.00 0.00 23 1010.1
20260504222828 22 360 11.3 25.7 0.00 0.00 0.00 22 1010.2
20260504222331 22 271 6.4 20.9 0.00 0.00 0.00 22 1010.2
20260504221837 22 360 11.3 20.9 0.00 0.00 0.00 22 1010.4
20260504221559 22 250 12.9 20.9 0.00 0.00 0.00 22 1010.2
20260504221319 22 217 9.7 24.1 0.00 0.00 0.00 22 1010.3
20260504220829 22 360 9.7 24.1 0.00 0.00 0.00 22 1010.2
20260504220318 22 229 12.9 22.5 0.00 0.00 0.00 21 1010.3
20260504220054 22 360 8.0 22.5 0.00 0.00 0.00 21 1010.2
20260504215821 22 360 8.0 20.9 0.00 0.00 0.00 21 1010.2
20260504215326 22 360 8.0 22.5 0.00 0.00 0.00 21 1010.2
20260504214810 22 166 9.7 22.5 0.00 0.00 0.00 21 1010.4
20260504214509 22 360 8.0 19.3 0.00 0.00 0.00 21 1010.4
20260504214321 22 221 8.0 19.3 0.00 0.00 0.00 21 1010.4
20260504213826 22 166 9.7 24.1 0.00 0.00 0.00 21 1010.4
20260504213311 22 360 11.3 25.7 0.00 0.00 0.00 21 1010.4
20260504213022 22 256 9.7 25.7 0.00 0.00 0.00 20 1010.4
20260504212842 22 215 14.5 25.7 0.00 0.00 0.00 20 1010.4
20260504212325 22 360 9.7 22.5 0.00 0.00 0.00 20 1010.4
20260504211810 22 180 9.7 22.5 0.00 0.00 0.00 21 1010.3
20260504211505 22 234 6.4 20.9 0.00 0.00 0.00 20 1010.3
20260504211319 22 211 6.4 20.9 0.00 0.00 0.00 21 1010.4
20260504210824 22 360 9.7 20.9 0.00 0.00 0.00 21 1010.3
20260504210334 22 214 11.3 19.3 0.00 0.00 0.00 21 1010.4
20260504210020 22 226 4.8 20.9 0.00 0.00 0.00 21 1010.4
20260504205818 22 360 9.7 20.9 0.00 0.00 0.00 20 1010.4
20260504205323 22 250 9.7 20.9 0.00 0.00 0.00 21 1010.4
20260504204827 22 245 8.0 19.3 0.00 0.00 0.00 21 1010.3
20260504204536 22 360 8.0 19.3 0.00 0.00 0.00 21 1010.4
20260504204310 22 198 8.0 19.3 0.00 0.00 0.00 21 1010.5
20260504203821 22 360 9.7 24.1 0.00 0.00 0.00 21 1010.5
20260504203325 22 213 12.9 24.1 0.00 0.00 0.00 21 1010.5
20260504203050 22 213 11.3 24.1 0.00 0.00 0.00 21 1010.5
20260504202828 22 182 8.0 22.5 0.00 0.00 0.00 21 1010.5
20260504202312 22 360 9.7 25.7 0.00 0.00 0.00 21 1010.6
20260504201821 22 113 9.7 25.7 0.00 0.00 0.00 22 1010.7
20260504201607 22 360 11.3 30.6 0.00 0.00 0.00 21 1010.6
20260504201325 22 360 9.7 30.6 0.00 0.00 0.00 21 1010.7
20260504200809 22 206 12.9 22.5 0.00 0.00 0.00 20 1010.7
20260504200321 23 360 11.3 20.9 0.00 0.00 0.00 21 1010.9
20260504200002 22 73 6.4 24.1 0.00 0.00 0.00 20 1010.8
20260504195844 22 231 4.8 24.1 0.00 0.00 0.00 20 1010.8
20260504195334 22 360 11.3 24.1 0.00 0.00 0.00 20 1011.0
20260504194818 22 360 6.4 17.7 0.00 0.00 0.00 20 1010.9
20260504194607 22 251 6.4 17.7 0.00 0.00 0.00 20 1011.0
20260504194321 22 236 9.7 17.7 0.00 0.00 0.00 21 1011.0
20260504193833 22 257 9.7 17.7 0.00 0.00 0.00 21 1011.0
20260504193315 22 360 8.0 24.1 0.00 0.00 0.00 21 1011.1
20260504193045 22 160 9.7 24.1 0.00 0.00 0.00 21 1011.0
20260504192845 22 180 12.9 30.6 0.00 0.00 0.00 21 1011.2
20260504192349 22 216 11.3 30.6 0.00 0.00 0.00 21 1011.2
20260504191813 22 360 11.3 20.9 0.00 0.00 0.00 21 1011.3
20260504191505 22 242 6.4 20.9 0.00 0.00 0.00 20 1011.2
20260504191321 22 360 8.0 20.9 0.00 0.00 0.00 21 1011.3
20260504190824 22 360 9.7 17.7 0.00 0.00 0.00 20 1011.4
20260504190333 22 196 11.3 19.3 0.00 0.00 0.00 20 1011.4
20260504190017 22 232 12.9 19.3 0.00 0.00 0.00 19 1011.4
20260504185817 23 360 8.0 20.9 0.00 0.00 0.00 20 1011.4
20260504185322 22 88 6.4 24.1 0.00 0.00 0.00 21 1011.5
20260504184825 22 135 6.4 17.7 0.00 0.00 0.00 21 1011.6
20260504184537 22 205 6.4 22.5 0.00 0.00 0.00 20 1011.6
20260504184309 22 360 8.0 22.5 0.00 0.00 0.00 21 1011.6
20260504183840 22 360 11.3 22.5 0.00 0.00 0.00 21 1011.7
20260504183323 22 229 4.8 24.1 0.00 0.00 0.00 21 1011.7
20260504183023 21 360 9.7 24.1 0.00 0.00 0.00 22 1011.8
20260504182832 22 360 11.3 24.1 0.00 0.00 0.00 21 1011.8
20260504182317 22 360 12.9 20.9 0.00 0.00 0.00 21 1011.8
20260504181819 22 360 9.7 20.9 0.00 0.00 0.00 21 1011.9
20260504181521 22 360 9.7 20.9 0.00 0.00 0.00 20 1012.1
20260504181328 22 240 8.0 20.9 0.00 0.00 0.00 20 1012.0
20260504180812 22 234 9.7 24.1 0.00 0.00 0.00 19 1012.1
20260504180317 22 360 11.3 24.1 0.00 0.00 0.00 20 1012.1
20260504180055 22 360 8.0 20.9 0.00 0.00 0.00 21 1012.2
20260504175820 22 256 4.8 16.1 0.00 0.00 0.00 20 1012.3
20260504175332 22 175 6.4 19.3 0.00 0.00 0.00 21 1012.4
20260504174817 22 360 8.0 19.3 0.00 0.00 0.00 21 1012.4
20260504174551 21 165 6.4 17.7 0.00 0.00 0.00 21 1012.4
20260504174319 22 259 9.7 16.1 0.00 0.00 0.00 21 1012.4
20260504173831 21 360 3.2 25.7 0.00 0.00 0.00 21 1012.4
20260504173315 21 360 9.7 25.7 0.00 0.00 0.00 21 1012.5
20260504173006 21 360 6.4 22.5 0.00 0.00 0.00 20 1012.6
20260504172819 21 360 9.7 22.5 0.00 0.00 0.00 20 1012.6
20260504172350 21 261 9.7 22.5 0.00 0.00 0.00 21 1012.6
20260504171812 21 217 6.4 19.3 0.00 0.00 0.00 21 1012.6
20260504171556 21 360 9.7 29.0 0.00 0.00 0.00 20 1012.7
20260504171314 21 360 4.8 29.0 0.00 0.00 0.00 21 1012.7
20260504170825 21 239 12.9 29.0 0.00 0.00 0.00 20 1012.7
20260504170310 22 122 8.0 17.7 0.00 0.00 0.00 20 1012.8
20260504160315 20 223 4.8 16.1 0.00 0.00 0.00 21 1013.6
20260504150819 18 71 8.0 20.9 0.00 0.00 0.00 26 1014.3
20260504150328 19 360 6.4 16.1 0.00 0.00 0.00 27 1014.0
20260504141322 17 360 6.4 17.7 0.00 0.00 0.00 35 1014.3
20260504140846 16 360 6.4 19.3 0.00 0.00 0.00 36 1014.3
20260504140335 16 223 8.0 19.3 0.00 0.00 0.00 36 1014.3